Location: Asheville, NC
(35.6000°N, 82.5500°W)
Time: 23:03:16
(UTC-04:00)

Vanguard 1 Rocket - Visible Passes

Search period start: 23 April 2018 00:00
Search period end: 03 May 2018 00:00
Orbit: 654 x 4223 km, 34.3° (Epoch: 22 April)

Date Brightness Start Highest point End Pass type
(mag) Time Alt. Az. Time Alt. Az. Time Alt. Az.
23 Apr 11.6 03:56:50 10° S 04:11:06 18° SE 04:22:59 10° ESE visible
23 Apr 10.7 06:19:31 10° SW 06:41:30 45° SSE 06:54:48 10° E visible
24 Apr 11.1 05:06:39 10° SSW 05:27:44 35° SE 05:42:27 10° E visible
25 Apr 11.4 03:57:31 12° S 04:13:49 25° SE 04:28:27 10° E visible
25 Apr 10.6 06:20:58 10° SW 06:44:21 54° SSE 06:58:19 10° E visible
26 Apr 11.6 02:50:31 12° SSE 02:59:58 15° SE 03:10:39 10° ESE visible
26 Apr 10.9 05:07:49 11° SSW 05:30:27 43° SSE 05:46:14 10° E visible
27 Apr 11.2 04:00:43 17° S 04:16:24 32° SE 04:32:55 10° E visible
28 Apr 11.4 02:53:33 17° SSE 03:02:29 21° SE 03:17:14 10° E visible
28 Apr 10.8 05:10:50 14° SW 05:33:06 51° SSE 05:49:46 10° E visible
29 Apr 11.7 01:46:19 11° SE 01:48:50 11° SE 01:53:36 10° ESE visible
29 Apr 11.0 04:03:35 22° S 04:18:52 39° SE 04:36:50 10° E visible
30 Apr 11.2 02:56:16 23° SSE 03:04:50 27° SE 03:22:12 10° E visible
30 Apr 10.7 05:13:32 16° SW 05:35:42 58° SSE 05:53:08 10° E visible
01 May 11.5 01:48:52 16° SE 01:51:11 16° SE 02:03:55 10° E visible
01 May 10.9 04:06:08 26° SSW 04:21:16 47° SE 04:40:25 10° E visible
02 May 11.0 02:58:40 29° SSE 03:07:03 34° SE 03:26:22 10° E visible
02 May 10.6 05:15:55 17° SW 05:38:19 66° SSE 05:56:24 10° ENE visible
